Location: Big Prairie
(40.6673°N, 82.0952°W)
Time: 09:04:29
(UTC+00:00)

Meteor 1-26 Rocket - Pass Details

Date: 30 June 2022
Orbit: 810 x 924 km, 81.3° (Epoch: 14 August)

Event Time Altitude Azimuth Distance (km) Brightness Sun altitude
Rises 07:55:59 0° 340° (NNW) 3,472 7.9 -17.9°
Reaches altitude 10° 07:58:37 10° 331° (NNW) 2,547 7.0 -17.7°
Maximum altitude 08:03:43 33° 270° (W) 1,469 5.1 -17.1°
Enters shadow 08:05:53 25° 232° (SW) 1,722 5.2 -16.8°
